Wetbulb
77.60 77.83 77.72 77.80 78.30 79.03 78.44 79.27 78.75 80.53 73.89 66.84 66.60 70.56 77.97 78.56 78.75 79.09 77.73 77.26 76.36 77.10 78.11 77.26 77.88 78.86 76.99 76.31 76.86 76.36 75.49 75.55 73.15 74.49 75.07 76.13 75.99 77.36 79.20 79.31 79.54 77.63 71.61
73.63 76.74 77.21 78.46 78.42 77.91 78.14 78.49 79.23 79.08 80.24 75.39 72.61 76.19 76.25 78.21 77.84 78.04 76.72 76.96 76.36 76.70 77.53 77.19 77.19 76.54 77.93 77.74 76.42 75.57 75.42 76.25 73.77 71.89 74.57 74.70 76.93 77.95 80.06 78.55 79.09 76.96 75.51
74.75 74.56 76.40 77.34 76.85 78.34 78.44 78.81 78.70 79.08 79.39 79.71 80.19 78.66 78.44 77.08 77.42 77.90 77.61 77.53 77.32 77.21 77.62 77.05 76.97 77.24 77.19 76.52 77.65 76.51 76.42 77.15 76.93 75.44 74.84 75.08 75.29 77.12 76.67 77.96 78.13 78.32 74.70
70.89 71.02 73.76 76.34 77.10 77.50 78.55 78.33 78.86 79.01 78.31 78.77 79.35 79.12 78.71 78.27 77.59 77.17 76.79 77.12 77.32 77.16 77.88 77.85 77.54 77.31 77.07 77.63 77.26 76.91 76.52 76.05 75.42 74.99 73.67 74.04 75.73 76.17 77.09 73.16 71.32 74.27 74.64
67.60 67.76 68.82 70.71 74.76 76.75 77.74 77.29 77.75 78.33 78.16 78.29 78.37 78.58 78.73 77.85 76.58 77.26 77.77 77.34 76.36 76.87 77.43 78.05 78.05 77.02 74.67 75.30 75.82 76.42 76.26 76.16 74.87 73.61 72.77 72.33 71.70 73.10 72.05 72.67 72.87 73.73 72.60
64.29 63.48 67.07 68.58 68.90 69.35 73.11 75.40 77.27 77.25 77.80 78.41 77.49 77.22 76.90 76.02 69.31 68.06 74.80 76.46 77.28 76.56 75.88 77.50 78.77 76.38 73.69 69.76 69.14 68.82 71.64 74.52 74.46 74.66 71.94 70.85 73.20 74.57 73.80 73.50 72.88 70.92 70.13
63.45 63.37 63.86 66.37 67.33 67.56 68.94 69.70 74.09 75.57 76.27 77.01 76.94 77.00 76.88 77.37 68.71 65.72 66.76 74.66 76.13 77.04 77.24 76.94 76.51 75.93 73.80 76.29 69.14 67.54 68.07 67.19 68.86 72.85 72.62 73.36 73.08 74.02 75.05 74.96 74.56 74.42 72.84
64.56 63.77 64.19 64.52 64.46 65.21 66.13 66.26 68.16 70.59 74.33 75.08 76.30 76.62 76.31 76.67 67.63 65.59 66.41 74.16 75.29 76.18 76.13 76.91 77.83 76.91 76.66 76.80 77.43 76.67 75.28 75.22 73.50 71.42 71.99 72.38 73.36 74.46 75.72 75.34 74.84 75.47 76.26
64.06 65.23 66.26 65.97 64.33 63.76 64.53 65.36 65.75 67.25 68.93 72.62 74.59 75.04 75.95 76.01 67.45 62.54 65.68 74.51 74.55 74.54 74.50 76.08 76.40 76.30 72.68 68.60 75.51 75.87 76.53 77.05 72.86 69.19 69.52 68.86 68.77 68.83 71.44 75.30 72.93 71.30 69.56
61.90 62.52 63.20 65.47 66.79 65.30 64.49 65.12 66.78 66.52 67.74 68.83 69.91 73.58 71.65 75.22 67.67 63.54 64.42 74.02 74.44 74.55 75.25 75.25 67.79 71.59 66.85 65.10 74.25 75.87 74.18 74.78 75.55 76.09 75.46 70.40 68.34 70.74 66.26 72.20 73.58 70.86 70.54
60.41 61.72 62.47 63.06 63.97 66.62 66.97 67.75 65.97 64.90 65.59 67.29 67.49 70.33 71.66 72.57 74.37 62.78 59.60 72.28 74.59 74.44 74.45 74.24 75.01 64.02 61.47 61.12 61.62 74.67 74.33 74.90 74.21 75.34 75.91 75.59 75.27 74.96 75.44 73.99 73.55 72.58 71.55
60.16 59.82 60.92 62.11 61.89 62.20 65.10 67.41 67.18 66.57 65.10 65.75 67.35 67.97 69.80 71.96 66.60 65.63 60.47 58.44 67.55 73.28 73.52 74.34 74.47 59.82 56.46 54.98 57.75 62.15 62.53 65.71 74.43 74.16 73.77 73.14 72.67 72.30 72.60 73.45 75.96 76.10 75.98
58.67 58.73 59.44 60.50 61.22 62.18 62.98 64.74 65.44 66.23 65.12 63.87 62.49 64.53 66.65 70.66 71.71 63.41 57.66 56.44 57.96 63.80 70.28 68.01 59.29 58.20 57.46 60.64 57.96 58.17 59.25 68.02 70.45 71.64 71.67 72.06 72.64 72.91 72.98 73.13 73.60 78.79 77.51
56.51 57.36 58.44 58.63 58.70 60.24 60.38 61.18 61.73 62.88 63.95 63.52 63.03 61.15 61.36 61.58 66.12 66.86 65.19 64.08 61.94 64.53 64.74 64.42 62.70 60.10 59.93 63.89 65.35 68.25 68.44 69.02 70.42 70.68 70.80 71.85 73.13 73.28 72.75 72.70 70.63 70.52 75.44
55.35 55.86 56.42 57.18 57.98 58.32 59.51 60.02 61.11 62.98 61.99 63.10 63.35 61.98 60.12 59.46 60.98 54.14 57.03 60.58 60.84 59.01 56.06 61.73 64.72 67.60 71.07 72.71 72.81 73.01 72.91 72.06 70.46 71.43 71.68 72.15 72.84 73.44 72.95 73.02 71.62 71.61 71.66
53.19 54.19 55.37 55.73 56.37 56.83 57.05 57.98 55.61 51.44 50.94 48.79 48.59 55.51 60.55 53.73 49.45 47.80 46.06 44.37 45.64 46.35 55.29 59.42 63.27 67.00 68.94 71.10 71.88 73.30 73.80 72.19 73.97 73.50 72.93 72.74 72.31 72.52 72.66 73.08 73.13 72.20 71.27
51.96 53.32 54.89 55.01 56.23 56.30 56.66 57.07 56.59 58.40 51.04 47.41 45.76 45.98 45.94 50.53 47.57 44.35 43.65 44.37 43.81 46.55 55.01 60.75 64.54 66.95 68.28 70.02 71.48 72.56 72.33 73.40 74.81 74.77 73.97 74.00 73.29 72.99 71.56 71.96 72.21 72.33 71.68
51.25 50.77 53.56 54.91 55.06 56.16 55.88 55.90 55.97 56.04 57.93 59.27 53.13 48.94 46.24 45.00 44.45 43.43 43.65 44.39 58.03 57.43 58.52 62.72 65.47 66.77 68.18 69.44 70.67 72.13 72.73 72.50 73.33 70.92 70.29 73.00 73.13 73.58 73.07 72.58 72.69 72.48 71.90
49.75 50.44 51.46 52.52 53.71 53.54 54.12 55.17 56.50 56.88 57.36 58.45 60.11 56.48 51.70 46.62 43.05 43.21 43.71 57.29 60.14 61.16 61.08 61.99 63.87 65.28 67.76 69.72 71.66 72.24 73.04 72.31 70.97 71.72 71.88 72.46 70.45 73.19 72.17 72.39 72.29 63.58 66.18
49.12 50.08 49.54 49.25 50.66 52.05 53.08 53.96 54.84 54.95 56.60 57.36 58.13 58.68 60.43 58.20 58.88 61.43 63.17 61.97 62.38 60.71 59.46 59.61 60.64 60.66 61.91 63.75 69.79 72.03 71.92 71.54 70.84 69.14 68.08 69.06 71.06 73.30 72.94 72.68 72.56 71.95 72.18
47.78 47.44 48.38 48.30 48.40 50.34 51.10 52.47 53.01 54.10 54.77 55.24 56.12 57.66 47.81 59.41 60.55 61.04 60.97 60.41 58.69 56.95 56.08 55.38 55.72 56.48 58.73 60.15 61.40 64.85 66.18 67.92 67.83 67.87 68.34 66.52 68.46 70.54 71.79 72.01 71.99 72.07 71.86
46.08 46.08 46.66 46.27 46.86 47.78 49.73 51.22 50.80 51.95 53.07 53.86 54.88 56.62 46.01 56.69 58.87 59.96 59.99 56.72 55.26 54.46 54.03 53.02 52.93 53.85 55.36 56.06 57.28 57.44 58.55 60.76 62.65 64.12 64.50 64.86 64.75 65.02 65.75 66.09 67.74 70.92 69.23
45.01 44.70 44.75 45.08 45.29 46.56 46.86 48.85 49.53 50.17 50.41 51.95 54.02 54.34 55.29 55.92 54.61 53.51 53.10 52.17 51.26 50.61 50.41 50.04 50.08 50.09 51.07 51.16 52.38 53.55 53.45 54.55 55.94 55.47 57.26 60.55 61.82 63.24 64.03 64.44 65.12 66.00 66.74
43.69 42.49 42.24 42.74 43.12 43.34 43.90 44.88 47.40 45.70 48.17 49.95 50.60 51.37 51.41 52.02 52.06 51.60 50.32 49.78 48.61 47.29 47.50 46.88 46.63 47.06 46.25 46.84 48.06 47.91 48.77 48.45 46.77 50.80 54.70 57.16 59.44 60.44 62.51 63.46 64.18 65.57 65.63
43.42 41.38 40.57 40.20 40.70 40.91 41.53 41.71 42.52 44.02 44.98 45.97 47.68 49.26 49.73 48.62 48.15 48.27 47.54 46.59 45.39 44.60 43.76 43.75 43.77 43.61 42.88 42.39 42.29 41.95 39.62 32.41 37.97 41.63 50.02 56.38 58.22 60.53 61.98 63.30 64.80 64.67 64.70
43.28 42.63 40.48 39.76 39.50 39.47 39.47 39.45 39.47 40.14 40.98 42.14 43.54 44.92 45.75 45.94 45.54 44.86 44.05 43.37 43.00 42.35 41.56 40.85 40.10 39.87 39.93 40.57 39.56 36.50 32.65 31.57 37.12 35.21 44.53 57.34 59.09 58.49 57.73 60.28 60.17 60.49 60.32
MSLP
1014.77 1014.79 1015.01 1015.37 1015.64 1016.01 1016.21 1015.92 1016.32 1017.81 1019.67 1018.89 1019.37 1018.91 1018.14 1018.81 1019.23 1019.71 1020.00 1020.12 1020.18 1020.18 1020.29 1020.39 1020.32 1020.38 1020.46 1020.39 1020.33 1020.25 1019.99 1019.98 1020.13 1019.73 1019.27 1018.69 1018.55 1018.17 1017.74 1017.51 1017.26 1016.99 1017.48
1014.93 1014.92 1014.95 1015.31 1015.63 1015.86 1016.29 1016.31 1016.34 1016.25 1016.93 1017.97 1017.88 1018.07 1018.36 1018.98 1019.25 1019.57 1019.90 1019.81 1020.05 1020.08 1020.11 1020.16 1020.17 1020.26 1020.38 1020.47 1020.38 1020.34 1020.13 1019.81 1019.99 1019.89 1019.53 1019.10 1018.64 1017.90 1017.29 1017.37 1016.96 1016.58 1016.76
1014.99 1015.38 1014.73 1014.66 1015.37 1015.63 1016.02 1016.38 1016.47 1016.74 1016.77 1017.09 1017.40 1017.98 1018.54 1019.04 1019.34 1019.60 1019.56 1019.55 1019.73 1019.70 1019.74 1019.91 1020.09 1020.10 1020.23 1020.35 1020.34 1020.39 1020.25 1019.95 1019.92 1019.92 1019.58 1018.89 1018.29 1017.75 1017.39 1017.11 1017.09 1016.56 1016.65
1016.51 1016.88 1015.15 1014.97 1015.19 1015.59 1016.06 1016.43 1016.61 1016.73 1017.13 1017.46 1017.78 1018.05 1018.29 1018.67 1018.93 1019.12 1019.30 1019.27 1019.24 1019.36 1019.49 1019.52 1019.59 1019.71 1019.82 1019.95 1020.12 1020.15 1020.08 1020.04 1019.89 1019.76 1019.46 1019.03 1018.27 1017.64 1017.56 1017.71 1017.45 1017.03 1016.87
1018.22 1017.80 1016.91 1016.46 1016.36 1016.04 1016.29 1016.65 1016.71 1016.70 1016.88 1017.29 1017.59 1017.81 1018.01 1018.26 1018.41 1018.67 1018.65 1018.82 1019.17 1019.19 1019.14 1019.13 1019.13 1019.12 1019.24 1019.44 1019.66 1019.79 1019.83 1019.89 1019.77 1019.62 1019.45 1019.07 1018.54 1018.23 1018.16 1017.83 1017.80 1017.60 1017.08
1018.96 1017.92 1017.75 1017.79 1017.56 1017.50 1017.09 1016.71 1016.86 1016.84 1016.82 1016.95 1017.22 1017.45 1017.62 1017.70 1017.73 1017.86 1018.04 1018.24 1018.42 1018.67 1018.81 1018.82 1018.81 1018.77 1018.92 1019.09 1019.23 1019.33 1019.45 1019.78 1019.80 1019.70 1019.54 1019.41 1018.88 1018.57 1018.41 1018.35 1018.17 1017.93 1017.49
1018.79 1018.74 1018.69 1018.75 1018.43 1018.14 1017.72 1017.61 1017.23 1017.04 1016.99 1017.02 1017.15 1017.20 1017.16 1017.29 1017.31 1017.39 1017.64 1017.89 1017.91 1018.04 1018.20 1018.36 1018.51 1018.38 1018.19 1018.34 1018.48 1018.66 1018.80 1018.95 1019.11 1019.33 1019.43 1019.21 1018.80 1018.52 1018.37 1018.37 1018.11 1017.86 1017.57
1018.61 1018.82 1018.67 1018.74 1018.85 1018.73 1018.47 1018.37 1018.27 1018.05 1017.51 1017.14 1016.97 1016.95 1017.04 1017.11 1017.23 1017.31 1017.41 1017.61 1017.63 1017.54 1017.59 1017.74 1017.90 1018.00 1017.98 1018.17 1018.36 1018.37 1018.40 1018.19 1018.13 1018.40 1018.45 1018.17 1018.00 1017.65 1017.86 1017.77 1017.64 1017.45 1016.88
1018.66 1018.73 1018.62 1018.88 1018.92 1018.58 1019.07 1018.87 1018.87 1018.58 1018.19 1017.68 1017.24 1017.07 1016.94 1017.01 1016.98 1017.09 1017.23 1017.23 1017.19 1017.17 1017.18 1017.23 1017.33 1017.46 1017.56 1017.63 1017.72 1017.69 1017.56 1017.18 1016.83 1017.11 1017.05 1016.93 1016.93 1016.99 1017.09 1017.30 1017.33 1017.30 1016.65
1019.32 1019.27 1019.50 1019.02 1018.60 1018.70 1019.11 1019.24 1019.06 1018.85 1018.50 1018.24 1017.93 1017.29 1017.00 1016.89 1016.89 1016.97 1016.97 1017.12 1016.75 1016.59 1016.66 1016.60 1016.70 1016.91 1017.01 1017.14 1017.30 1017.11 1016.89 1016.52 1016.51 1016.37 1016.73 1016.71 1016.70 1016.62 1016.66 1016.77 1016.66 1016.68 1016.47
1020.29 1020.27 1020.04 1019.74 1019.51 1019.00 1018.73 1018.73 1018.93 1018.85 1018.54 1018.26 1018.06 1017.51 1017.31 1016.93 1016.66 1016.61 1016.70 1016.84 1016.53 1016.36 1016.30 1016.01 1015.91 1015.81 1016.05 1016.15 1016.25 1016.35 1015.84 1015.77 1015.80 1015.81 1015.79 1015.69 1015.54 1015.43 1015.29 1015.22 1015.17 1015.39 1015.38
1020.63 1020.49 1020.33 1020.18 1019.82 1019.24 1018.91 1018.64 1018.66 1018.57 1018.46 1018.16 1017.77 1017.35 1016.87 1016.63 1016.38 1016.41 1016.48 1016.43 1016.40 1016.27 1016.10 1016.03 1015.89 1015.80 1015.77 1015.81 1016.02 1015.82 1015.23 1015.04 1015.12 1014.93 1014.86 1014.65 1014.55 1014.31 1013.99 1013.71 1013.31 1013.38 1013.21
1020.67 1020.43 1020.22 1019.97 1019.71 1019.40 1018.99 1018.53 1018.16 1017.84 1017.76 1017.58 1017.51 1016.93 1016.53 1016.35 1016.39 1016.36 1016.42 1016.39 1016.32 1016.70 1016.25 1015.86 1015.83 1015.55 1015.32 1015.25 1014.89 1014.53 1014.38 1014.57 1014.39 1014.19 1013.78 1013.50 1013.39 1013.24 1013.04 1012.74 1012.26 1012.05 1012.19
1020.90 1020.53 1020.04 1019.61 1019.28 1018.96 1018.59 1018.06 1017.53 1017.14 1016.92 1016.86 1017.04 1017.14 1017.04 1017.00 1016.47 1016.84 1016.87 1017.01 1016.69 1016.72 1016.53 1016.17 1015.94 1015.81 1015.21 1014.69 1014.33 1013.89 1013.85 1013.45 1012.99 1012.57 1012.23 1011.99 1012.06 1012.05 1011.89 1011.64 1011.54 1011.37 1011.59
1020.96 1020.53 1020.03 1019.39 1018.88 1018.43 1018.01 1017.59 1017.13 1016.75 1016.59 1016.62 1016.63 1016.85 1016.87 1016.68 1016.72 1016.96 1017.14 1017.06 1016.93 1016.78 1016.82 1016.39 1015.59 1014.91 1014.13 1013.29 1012.74 1012.19 1011.83 1011.64 1011.41 1011.00 1010.89 1010.77 1010.79 1010.79 1010.64 1010.49 1010.23 1010.09 1010.08
1021.14 1020.47 1019.88 1019.38 1018.77 1018.34 1017.76 1017.06 1016.53 1016.16 1016.16 1016.11 1016.06 1016.23 1016.26 1016.22 1016.20 1016.29 1016.32 1016.23 1016.40 1016.52 1016.87 1016.03 1015.09 1014.33 1013.49 1012.67 1011.90 1011.04 1010.32 1009.84 1009.59 1009.91 1010.19 1010.50 1010.54 1010.29 1009.77 1009.39 1009.07 1009.01 1008.99
1021.74 1021.03 1020.23 1019.42 1018.73 1018.14 1017.68 1017.10 1016.32 1015.74 1015.57 1015.25 1015.40 1015.58 1015.65 1015.76 1015.85 1015.87 1015.87 1015.85 1015.99 1016.46 1016.10 1014.91 1014.04 1013.22 1012.53 1011.80 1011.15 1010.25 1009.48 1009.43 1009.43 1009.59 1009.55 1009.39 1009.73 1009.97 1009.19 1009.11 1008.71 1008.39 1008.21
1021.74 1021.19 1020.38 1019.39 1018.84 1018.19 1017.65 1017.13 1016.68 1016.06 1015.26 1014.90 1014.59 1014.76 1014.84 1015.08 1015.07 1015.43 1015.56 1015.87 1015.47 1014.67 1014.82 1014.18 1013.33 1012.65 1011.96 1011.09 1010.05 1009.01 1008.78 1009.17 1009.44 1009.68 1009.52 1006.32 1006.70 1008.89 1008.69 1007.79 1008.15 1007.65 1007.37
1021.56 1021.00 1020.73 1020.25 1019.43 1018.72 1018.05 1017.34 1016.54 1015.67 1015.07 1014.59 1014.13 1013.85 1013.83 1013.87 1014.36 1014.79 1014.71 1014.99 1014.56 1014.35 1014.17 1013.61 1012.99 1012.34 1011.48 1010.39 1009.26 1008.45 1008.41 1008.89 1008.79 1009.09 1009.00 1008.41 1006.01 1007.43 1007.85 1007.41 1007.79 1007.12 1006.74
1021.45 1021.08 1020.71 1020.31 1019.70 1019.01 1018.18 1017.43 1016.67 1016.01 1015.27 1014.41 1013.91 1013.54 1013.26 1013.39 1014.07 1014.05 1013.32 1013.43 1013.65 1013.89 1013.84 1013.47 1012.93 1012.44 1011.76 1010.93 1009.46 1008.06 1007.77 1007.88 1008.17 1008.18 1008.44 1008.40 1008.05 1007.49 1006.82 1007.29 1007.38 1006.82 1006.33
1021.12 1020.99 1020.72 1020.34 1019.56 1018.85 1018.26 1017.57 1016.99 1016.29 1015.25 1014.52 1013.88 1013.35 1012.96 1012.93 1012.71 1012.55 1012.48 1012.64 1013.39 1014.04 1014.08 1013.85 1013.41 1012.89 1012.03 1011.10 1010.47 1009.29 1008.35 1007.82 1007.64 1007.67 1007.57 1007.03 1005.65 1005.20 1006.26 1006.61 1006.46 1006.27 1006.15
1021.37 1021.07 1020.55 1020.16 1019.59 1019.15 1018.48 1017.71 1017.21 1016.47 1015.69 1015.01 1014.33 1013.54 1013.10 1012.59 1012.33 1012.13 1012.00 1012.91 1013.74 1014.32 1014.44 1014.25 1013.66 1013.02 1012.27 1011.47 1010.77 1010.22 1009.73 1008.83 1008.03 1007.73 1007.13 1006.79 1006.69 1006.63 1006.54 1006.73 1006.79 1006.45 1006.18
1021.08 1020.85 1020.52 1020.09 1019.48 1018.89 1018.41 1017.76 1017.10 1016.57 1015.98 1015.42 1014.76 1013.78 1013.38 1012.92 1012.71 1012.99 1013.60 1013.89 1014.20 1014.55 1014.59 1014.30 1013.79 1013.04 1012.43 1011.83 1011.10 1010.62 1010.15 1009.72 1009.21 1008.88 1008.80 1007.89 1007.46 1007.31 1007.05 1006.64 1006.65 1006.45 1006.21
1020.89 1020.93 1020.72 1020.29 1019.77 1019.27 1018.64 1018.03 1017.35 1016.79 1016.25 1015.39 1014.74 1014.13 1013.63 1013.34 1013.59 1013.74 1013.94 1014.17 1014.47 1014.72 1014.53 1014.13 1013.72 1013.10 1012.53 1011.83 1011.30 1010.74 1010.21 1010.03 1009.89 1009.19 1008.98 1008.32 1007.65 1007.38 1007.14 1006.62 1006.33 1006.21 1005.85
1020.81 1020.89 1020.74 1020.48 1020.03 1019.46 1018.95 1018.49 1017.93 1017.22 1016.46 1015.81 1015.07 1014.55 1014.21 1014.03 1013.77 1014.13 1014.42 1014.64 1014.75 1014.66 1014.37 1014.05 1013.67 1013.15 1012.69 1012.05 1011.57 1010.69 1010.05 1010.00 1009.81 1009.01 1008.68 1007.90 1007.58 1007.13 1006.91 1006.39 1005.96 1005.89 1005.71
1020.24 1020.32 1020.41 1020.17 1019.97 1019.57 1019.09 1018.51 1017.95 1017.29 1016.72 1016.19 1015.63 1015.30 1014.96 1014.85 1014.85 1014.89 1014.83 1014.74 1014.63 1014.51 1014.29 1013.90 1013.73 1013.33 1012.87 1012.19 1011.42 1010.50 1009.89 1009.57 1009.21 1008.74 1008.27 1007.28 1006.97 1006.83 1006.47 1006.10 1005.83 1006.35 1005.83
Wind_Speed
12 12 11 10 10 7 6 4 4 2 15 8 7 11 5 4 5 4 4 4 5 5 4 4 5 3 3 5 4 5 2 2 2 4 3 5 6 7 5 3 5 5 5
8 11 11 9 9 11 8 7 5 5 3 13 12 10 7 5 7 7 7 4 7 6 5 5 4 4 5 4 4 6 4 4 1 5 4 5 6 6 4 4 5 6 5
6 8 10 12 11 8 9 8 7 6 4 4 3 6 5 7 7 7 7 6 5 5 5 6 6 6 5 4 4 4 4 3 3 3 5 4 4 5 5 4 3 4 4
12 10 6 6 9 7 6 8 7 7 8 6 6 6 7 7 7 7 11 7 7 6 6 6 6 6 6 6 5 6 5 5 4 4 5 7 4 3 3 2 5 4 4
6 9 12 13 11 3 5 6 7 8 8 9 8 7 7 7 8 8 7 7 9 8 7 6 7 9 10 7 4 5 5 4 4 4 4 4 4 4 3 3 3 3 5
9 10 11 10 10 13 12 7 6 8 8 8 10 10 9 9 13 11 8 8 8 9 9 8 7 7 7 10 10 10 7 4 5 4 4 5 5 4 4 4 3 3 4
8 9 9 8 9 9 9 11 10 7 7 7 7 9 10 9 11 7 7 5 6 6 7 7 8 10 10 9 12 13 10 11 11 6 7 7 8 5 4 6 5 4 5
6 6 8 9 9 8 9 10 11 10 9 6 6 8 8 8 11 12 10 6 6 7 8 8 7 9 10 5 7 8 10 10 9 9 11 13 12 11 6 6 7 7 7
11 11 9 5 6 8 7 7 6 8 7 10 7 8 7 9 10 8 7 8 9 9 10 10 10 11 11 13 9 9 8 9 12 17 17 18 16 14 9 3 5 6 9
10 10 10 11 9 5 4 4 5 5 7 7 10 10 9 9 11 10 6 6 9 9 9 11 16 16 13 13 9 10 12 12 10 10 6 9 14 12 15 9 8 9 8
9 8 8 9 9 9 1 2 3 6 6 6 8 8 11 10 11 12 9 6 8 8 9 10 10 17 21 21 17 14 16 12 12 10 10 10 10 9 8 9 11 10 10
8 8 8 8 8 9 9 6 6 6 6 7 7 7 7 9 11 11 12 12 9 6 9 9 12 8 4 9 6 16 18 14 11 11 11 11 10 9 8 9 11 14 13
9 9 9 9 8 9 9 8 7 7 7 4 6 6 5 5 6 9 10 7 5 5 8 11 18 19 15 11 15 17 13 9 12 12 12 12 11 11 10 7 8 10 14
11 11 9 9 9 9 8 8 8 8 7 5 3 5 6 6 7 4 4 6 7 5 7 8 10 14 17 16 14 12 8 8 11 12 13 12 10 10 11 10 11 11 8
11 10 11 9 9 9 9 9 9 9 7 6 5 5 6 8 5 3 2 3 2 4 7 7 7 9 10 10 11 11 12 11 11 12 12 12 12 11 11 11 11 10 8
12 10 9 10 9 9 10 10 12 14 14 12 13 10 7 11 12 11 10 4 5 5 3 6 9 10 11 11 11 10 11 15 14 12 12 11 11 11 11 10 10 11 10
11 12 11 10 10 9 9 10 10 10 15 15 14 13 14 14 10 8 9 10 9 8 6 9 10 10 11 12 12 11 12 12 12 12 13 12 11 12 12 12 11 10 10
12 14 11 9 10 10 9 10 10 12 10 9 11 15 15 17 18 12 11 3 8 6 6 8 9 9 11 13 13 13 12 10 9 5 9 14 4 9 8 7 7 7 8
10 10 10 11 11 12 12 12 12 11 11 10 10 8 11 17 11 15 10 6 7 7 8 10 8 9 11 12 13 13 12 9 7 6 6 9 14 15 11 9 11 13 11
9 15 14 9 10 11 11 11 11 11 12 10 10 11 11 5 7 9 4 5 4 7 9 9 8 8 10 10 13 12 10 9 6 5 6 9 15 14 10 11 12 8 6
8 8 14 10 11 9 10 10 10 12 12 11 12 14 7 4 7 6 5 4 4 7 9 10 8 8 8 7 9 8 7 9 5 7 9 5 8 5 4 7 7 7 8
8 9 10 10 10 10 11 11 10 12 12 13 13 15 4 5 6 7 3 4 4 6 6 8 8 7 7 6 6 7 6 6 5 6 6 5 3 3 2 3 6 6 4
9 11 10 10 11 12 10 11 10 10 11 12 13 10 7 6 6 8 8 6 5 6 7 7 8 8 6 6 5 5 5 5 4 4 6 5 5 5 5 5 6 7 6
9 10 11 10 10 10 10 11 11 11 12 10 8 9 8 8 8 7 6 6 6 6 7 6 7 9 7 7 5 5 4 5 5 5 8 6 5 6 6 7 5 7 4
7 8 8 9 9 10 10 11 12 13 11 10 8 8 9 6 6 7 6 5 6 7 7 6 5 8 8 9 8 8 8 10 9 8 7 7 8 7 6 4 4 4 5
9 8 9 9 8 8 9 9 9 9 10 9 9 8 8 7 6 6 5 6 6 5 6 4 6 9 10 7 8 11 7 9 9 8 6 5 3 2 1 1 5 5 3
Wind_Direction
206 191 197 200 196 203 226 206 252 145 152 168 216 273 157 171 190 210 271 274 210 207 255 286 209 246 306 314 357 326 279 292 330 314 329 323 319 293 267 266 274 298 171
278 194 199 193 203 187 199 213 206 254 243 161 185 214 165 208 197 197 218 231 200 210 232 237 251 239 227 267 289 289 298 304 265 275 277 279 268 284 253 244 251 290 175
22 327 213 188 196 198 189 199 192 203 242 214 209 166 233 217 196 219 214 219 252 232 223 212 227 227 237 248 294 311 308 305 288 261 274 276 270 275 279 269 315 282 93
22 358 8 222 191 201 201 200 199 189 196 213 222 210 208 222 226 224 214 216 221 238 233 222 239 237 217 217 227 251 271 281 282 281 277 270 261 306 17 28 339 339 337
3 22 20 21 5 246 268 232 211 205 198 204 212 220 217 226 234 221 229 211 228 240 248 256 229 231 231 213 223 242 248 269 263 266 302 328 318 351 336 309 336 343 330
46 41 22 11 16 16 359 307 255 234 216 215 210 215 221 226 230 225 208 229 228 209 232 253 270 262 235 221 224 236 226 252 289 299 290 292 295 330 342 342 316 326 313
73 64 51 21 19 10 1 8 339 289 282 264 249 242 230 228 251 240 226 242 241 250 221 237 255 260 229 217 222 229 241 219 214 235 266 266 281 277 294 304 293 296 286
90 96 75 49 26 27 9 15 354 355 325 293 262 251 254 257 254 243 232 235 248 250 245 245 238 250 273 253 241 228 232 236 220 219 228 244 245 256 245 249 255 264 271
31 21 19 65 48 27 19 358 349 340 328 324 314 295 275 265 265 259 250 240 244 240 248 255 245 245 249 245 240 241 248 244 224 219 223 226 231 241 244 273 265 277 281
20 15 354 352 1 8 8 341 332 322 314 331 317 311 291 278 274 268 233 252 252 252 247 237 236 243 244 239 236 241 249 250 251 268 251 250 250 242 234 223 243 249 256
358 349 343 341 331 302 324 317 311 322 318 305 299 294 296 286 286 268 243 246 249 256 260 257 259 222 227 238 225 241 243 245 247 247 249 250 250 247 230 221 219 222 235
337 329 328 323 319 322 319 308 289 276 274 276 283 294 275 285 262 261 251 224 259 257 259 267 278 47 352 277 304 266 260 245 247 251 253 254 255 255 250 234 222 219 223
327 322 316 309 300 292 289 284 275 258 235 265 304 300 298 285 278 309 290 270 284 285 294 311 318 307 293 245 242 244 254 243 240 244 247 249 247 250 256 255 255 221 220
324 318 310 308 301 292 283 280 275 270 268 257 264 290 318 314 316 49 18 354 0 343 352 327 308 292 277 271 282 259 242 232 229 232 238 245 247 248 247 242 244 246 214
320 314 306 291 283 280 271 272 273 271 278 296 280 271 282 284 281 259 199 319 324 323 320 299 291 282 274 264 249 252 242 220 225 226 233 236 241 241 240 238 242 244 233
317 307 310 312 301 301 302 298 280 246 262 257 240 234 253 251 276 297 316 306 225 228 253 277 272 261 262 266 270 273 249 238 237 225 229 235 243 246 246 242 231 232 234
310 305 305 305 302 304 305 297 288 279 259 249 237 238 227 243 259 262 283 292 284 173 249 268 264 260 258 256 255 255 258 264 271 255 245 226 221 236 230 238 239 239 245
312 317 299 289 287 284 275 278 283 292 293 293 259 229 235 239 243 249 248 270 282 219 244 260 271 281 279 270 264 256 255 257 263 264 315 273 268 253 243 235 246 242 229
309 307 305 313 308 306 304 292 298 289 279 280 289 282 233 234 208 221 206 248 265 280 286 286 284 287 287 273 267 264 265 260 271 283 270 241 222 220 251 255 262 237 233
307 308 296 291 294 298 292 292 294 287 294 278 277 268 272 189 203 220 228 284 294 298 293 294 301 311 301 312 313 281 275 268 245 245 255 275 282 262 245 251 253 271 274
306 306 309 299 289 286 288 281 287 291 283 281 275 283 259 271 281 277 273 272 331 303 301 298 301 296 294 310 317 326 320 325 322 280 264 238 285 314 268 278 275 274 262
306 304 300 296 293 293 291 285 288 294 298 294 292 300 267 295 270 265 293 23 346 321 315 306 300 299 300 298 310 313 312 320 335 312 307 312 294 270 287 293 301 289 261
311 302 297 293 290 290 291 288 282 285 290 293 299 295 301 317 350 6 352 355 342 314 301 296 296 293 296 301 304 307 306 310 330 334 307 305 294 277 261 252 261 266 260
337 325 313 310 306 301 295 290 294 291 295 292 299 295 323 327 320 325 335 333 319 299 294 298 295 299 305 306 304 294 295 315 308 285 276 271 269 273 261 253 244 250 240
329 325 314 304 299 295 295 296 297 297 306 309 312 302 299 315 336 326 319 311 298 291 293 299 306 309 304 307 307 319 326 305 281 279 276 259 260 258 270 278 259 227 216
319 326 322 315 302 301 299 291 289 291 291 294 301 305 311 308 300 292 288 287 286 287 297 309 312 314 315 309 328 320 314 302 296 274 265 250 233 199 288 24 53 344 345